Wind_Speed
85 87 88 87 87 86 85 85 86 86 87 89 91 92 92 93 93 92 90 89 87 85 84 83 81 79 80 79 79 73 72 72 72 69 69 67 59 58 59 58 60 62 59
92 94 94 94 95 94 95 95 95 94 92 91 92 95 98 100 102 102 101 100 98 95 92 89 87 88 84 82 82 80 83 77 77 73 68 69 63 61 61 57 60 60 55
100 101 101 101 101 102 102 103 102 102 101 101 98 98 99 100 101 101 100 100 98 96 96 95 91 91 90 89 87 86 83 82 82 77 71 63 61 60 63 62 58 61 55
105 106 107 108 108 108 109 110 110 110 109 109 107 106 105 106 106 106 106 105 102 100 96 95 96 94 92 92 92 91 89 85 85 82 77 67 58 60 58 59 61 63 58
90 89 91 96 99 103 104 106 108 109 109 110 111 112 113 112 113 114 113 110 108 106 102 97 97 97 93 89 87 85 86 88 88 86 83 68 64 66 66 69 68 65 64
78 77 77 77 79 83 86 88 90 93 96 95 96 96 102 106 106 108 110 110 109 107 105 105 101 101 98 94 89 83 79 81 85 84 84 81 72 67 69 73 73 74 74
83 84 85 85 85 86 87 88 88 89 90 91 90 88 89 90 95 97 99 100 101 100 100 104 104 105 103 99 94 90 82 77 79 81 83 83 77 74 74 67 66 71 70
92 94 94 93 91 90 89 89 91 92 89 88 92 93 93 91 91 93 96 94 92 92 94 96 97 102 107 103 97 94 89 83 79 82 84 84 85 79 77 78 74 75 74
97 97 95 93 91 91 91 93 93 95 96 92 95 98 96 93 89 87 90 91 87 86 88 88 90 95 99 103 102 99 95 89 87 85 87 87 85 83 79 78 82 84 82
95 94 95 97 98 97 95 94 93 90 90 88 86 87 90 82 83 85 82 83 81 80 81 83 86 87 91 95 100 99 96 89 84 87 86 87 86 84 81 82 84 86 84
102 101 99 97 94 90 86 81 78 77 72 72 68 70 68 66 66 64 66 65 64 65 72 80 80 80 84 86 89 90 90 87 77 82 84 86 84 83 83 68 85 84 87
99 97 93 88 82 76 71 67 64 61 59 56 59 59 54 53 51 50 53 52 50 52 57 65 72 76 74 76 80 82 85 83 77 79 77 74 73 80 81 86 86 83 85
89 83 79 74 70 65 60 55 51 47 48 44 47 46 44 41 39 34 38 39 38 42 48 55 62 70 72 70 72 75 80 84 88 78 82 77 71 77 84 87 88 90 91
74 70 67 63 58 53 49 46 43 41 39 37 39 37 34 34 33 28 25 27 30 35 41 46 55 63 70 72 75 78 77 81 81 80 83 80 79 83 79 80 82 83 86
63 60 57 54 50 46 40 40 36 35 33 33 30 30 29 27 24 22 20 19 23 29 35 42 49 59 69 71 72 71 75 76 71 76 81 75 75 85 80 79 79 80 80
54 51 49 47 45 41 36 34 32 31 27 28 27 22 22 22 18 17 13 15 18 24 30 38 47 57 68 76 72 77 77 75 82 77 78 78 85 84 84 83 84 88 90
49 47 46 45 42 39 34 31 29 30 28 23 25 20 20 18 15 14 12 14 20 25 30 36 43 58 69 73 77 80 78 78 81 83 85 89 95 97 94 96 96 98 99
49 48 47 44 42 37 32 30 29 31 27 26 25 24 23 18 19 20 17 23 28 33 36 40 45 57 69 75 79 77 76 78 81 81 89 93 95 100 100 101 100 100 93
48 48 45 43 42 39 34 30 30 32 29 28 29 27 25 24 24 28 27 28 30 36 46 50 54 57 64 72 75 78 78 75 77 83 88 95 97 101 104 106 104 97 100
48 46 45 42 40 39 37 32 33 33 33 29 34 32 31 33 32 29 36 34 33 37 41 52 55 58 62 64 67 70 73 77 84 87 91 95 95 99 99 97 96 99 104
47 42 40 41 39 38 36 34 32 35 36 35 34 39 38 40 41 38 43 43 42 44 46 53 53 55 60 60 65 73 77 80 85 87 94 99 100 97 98 100 101 100 104
45 42 36 36 37 36 33 31 31 31 35 37 36 42 46 48 49 48 49 48 49 51 57 63 62 64 65 67 73 77 79 84 88 93 98 100 100 100 101 99 100 100 102
38 36 36 35 33 31 28 28 29 29 30 35 37 40 46 54 54 54 56 56 57 58 58 61 67 69 70 73 75 78 82 86 91 95 97 97 98 99 100 98 97 96 97
33 31 31 30 29 27 26 26 27 27 27 28 33 34 39 42 53 57 56 58 63 63 62 64 63 63 64 65 68 67 65 65 68 73 75 77 78 82 88 96 98 93 91
29 28 26 25 24 24 24 24 25 25 25 25 26 30 34 37 39 43 51 58 54 57 61 62 62 63 65 66 64 60 61 64 66 67 67 75 88 90 85 84 80 72 65
26 23 22 22 21 20 21 21 21 21 21 23 23 24 28 31 35 39 42 45 47 49 51 52 53 53 52 52 53 56 56 55 58 62 65 66 66 62 58 55 52 47 43
Wind_Direction
272 272 272 271 270 268 267 266 266 266 266 265 264 264 264 264 265 265 263 262 262 261 262 261 261 260 261 261 263 262 262 265 268 274 274 274 271 270 271 271 266 271 278
274 273 273 272 271 271 270 269 267 265 263 261 261 262 263 264 264 264 264 263 262 262 261 260 259 258 257 258 260 261 263 265 268 272 275 276 277 276 278 266 263 268 275
277 276 275 274 274 273 272 271 270 269 268 266 264 262 260 259 260 262 262 262 262 261 261 261 258 255 257 259 257 260 260 262 265 266 271 273 276 274 275 271 266 266 271
278 277 275 274 273 273 273 272 271 271 269 268 267 266 264 262 261 259 259 260 259 258 257 257 258 258 255 252 256 259 260 260 262 265 266 267 266 263 263 263 263 266 266
279 280 280 274 273 272 272 273 272 273 272 271 270 269 267 265 264 263 260 258 257 257 255 253 253 254 255 256 255 253 256 258 259 261 262 263 263 261 261 262 265 266 268
277 279 280 281 282 278 276 273 272 271 271 270 268 268 267 268 267 265 261 259 259 255 253 253 248 248 250 252 253 253 252 252 256 259 260 261 257 256 261 263 263 264 264
278 280 280 279 279 278 278 278 277 276 276 276 276 273 269 267 266 265 263 260 258 255 252 249 247 248 246 246 248 250 249 250 253 258 260 261 260 258 258 255 261 264 267
283 285 285 284 283 282 280 280 280 280 278 278 277 274 272 269 266 265 264 263 260 256 252 250 247 243 245 244 243 246 247 247 250 255 259 262 262 258 260 262 262 258 259
283 284 284 284 284 283 283 282 281 280 279 277 275 275 275 273 273 270 267 264 259 256 253 248 244 242 240 241 242 242 245 246 251 254 256 259 262 263 263 264 263 267 268
285 285 285 286 286 285 284 282 282 280 279 279 278 277 277 277 274 271 268 264 260 255 250 245 242 238 237 238 239 241 243 245 251 252 254 258 260 262 264 267 268 269 269
287 288 288 288 287 287 286 285 284 283 283 282 280 278 280 279 276 273 270 266 262 257 248 242 241 236 234 231 235 237 239 241 246 254 251 253 257 261 263 260 268 269 271
289 289 290 289 290 290 289 288 284 284 282 282 282 283 286 282 277 271 268 265 259 251 242 238 233 230 231 227 228 231 232 232 229 233 247 257 261 256 257 260 263 266 269
290 290 290 290 290 290 288 286 284 282 281 281 282 288 289 288 284 275 266 264 255 244 237 231 226 221 220 222 223 226 228 230 226 231 244 245 255 261 260 260 262 265 267
288 289 289 290 291 291 291 286 284 283 281 280 283 291 293 291 289 286 270 257 247 238 230 224 222 215 212 216 217 221 224 227 228 233 242 246 249 258 263 266 266 265 266
289 289 290 292 293 293 292 289 281 277 278 279 283 288 288 289 290 286 272 250 236 229 223 219 213 210 209 213 217 218 223 223 220 227 234 242 249 254 259 262 260 262 264
289 290 291 292 292 292 291 284 278 273 272 275 279 277 277 281 281 274 256 239 229 218 215 213 206 200 205 213 218 214 222 220 216 219 229 238 244 250 256 256 259 260 264
288 289 290 292 291 290 290 280 268 265 267 261 269 270 254 267 256 235 231 208 202 198 198 200 198 202 203 210 216 218 225 226 225 227 228 235 239 247 251 254 256 261 265
287 287 288 288 288 287 286 275 259 256 253 253 251 256 241 241 237 216 211 195 192 192 193 191 191 197 206 206 212 220 225 224 229 231 228 233 239 246 249 252 257 265 267
288 287 286 285 284 284 283 272 257 251 249 243 236 239 240 223 223 215 205 208 203 197 192 193 196 200 202 208 215 221 225 230 230 232 234 238 243 245 248 251 259 262 266
287 286 286 284 281 280 279 275 259 251 246 243 229 225 231 222 210 212 209 206 215 218 213 206 208 208 209 213 216 220 225 227 230 232 235 237 239 246 252 256 260 262 265
294 293 292 288 284 280 277 275 269 256 246 243 234 223 221 220 214 214 209 213 222 221 220 216 214 216 215 217 218 219 223 225 226 230 233 238 241 248 253 256 260 264 266
298 298 294 286 281 282 280 277 271 266 253 245 242 229 225 220 221 220 219 222 223 223 221 218 217 218 219 222 223 224 226 228 231 233 237 241 244 248 253 258 261 266 270
298 296 291 288 288 286 282 276 270 262 259 251 247 241 231 227 225 226 227 228 229 230 231 231 229 229 230 230 231 233 235 236 238 241 244 247 251 255 259 263 265 269 275
302 298 294 293 290 287 282 275 270 265 257 252 247 245 241 234 232 232 236 236 236 238 238 238 241 243 244 246 247 250 253 253 253 255 256 259 263 266 269 267 270 273 275
303 301 300 294 289 286 284 279 275 271 267 258 252 247 243 243 244 241 242 243 245 246 247 247 248 250 251 253 255 257 260 263 264 263 263 264 264 265 269 269 267 268 271
303 301 297 294 290 287 283 281 279 273 267 263 257 249 246 245 243 244 246 248 250 252 253 253 254 255 255 254 255 255 254 254 254 254 255 257 260 262 264 265 265 264 260
Height
10687 10683 10680 10680 10679 10679 10680 10678 10677 10676 10676 10676 10677 10676 10677 10678 10677 10679 10683 10685 10688 10692 10694 10699 10704 10706 10707 10709 10709 10711 10712 10714 10718 10718 10719 10718 10721 10721 10722 10724 10721 10723 10722
10661 10657 10653 10654 10651 10651 10649 10648 10649 10649 10650 10651 10651 10649 10649 10649 10648 10650 10653 10655 10660 10664 10669 10673 10680 10681 10687 10689 10690 10694 10693 10698 10700 10703 10703 10701 10703 10705 10706 10706 10706 10709 10710
10632 10628 10625 10624 10622 10619 10617 10616 10615 10616 10616 10615 10620 10622 10622 10621 10619 10620 10622 10624 10629 10636 10641 10646 10654 10656 10662 10665 10670 10672 10675 10679 10681 10687 10687 10687 10688 10690 10691 10692 10692 10693 10694
10600 10597 10594 10591 10589 10586 10582 10580 10579 10579 10580 10580 10582 10583 10585 10586 10586 10589 10590 10593 10598 10603 10611 10618 10622 10627 10636 10643 10647 10649 10652 10659 10659 10665 10670 10671 10673 10674 10675 10676 10677 10678 10678
10572 10567 10562 10560 10556 10554 10551 10546 10544 10542 10542 10541 10544 10542 10543 10546 10546 10548 10551 10556 10564 10570 10577 10588 10595 10598 10604 10613 10620 10630 10634 10635 10637 10644 10649 10653 10656 10657 10659 10660 10660 10661 10664
10549 10544 10539 10534 10530 10528 10522 10517 10512 10509 10503 10503 10503 10507 10502 10501 10502 10506 10507 10513 10523 10536 10545 10551 10561 10567 10577 10585 10594 10602 10612 10615 10617 10621 10624 10629 10638 10641 10640 10641 10643 10643 10646
10524 10519 10514 10512 10509 10503 10497 10492 10488 10483 10479 10474 10470 10470 10468 10468 10463 10464 10467 10474 10483 10495 10505 10513 10526 10535 10544 10556 10568 10575 10586 10595 10598 10599 10603 10606 10612 10622 10624 10625 10624 10624 10626
10497 10491 10486 10482 10479 10474 10469 10465 10457 10451 10450 10447 10439 10431 10428 10431 10433 10431 10430 10436 10447 10455 10464 10475 10489 10502 10511 10526 10540 10549 10560 10571 10578 10579 10583 10586 10588 10599 10602 10605 10607 10610 10612
10472 10464 10458 10453 10449 10444 10441 10436 10431 10422 10414 10413 10408 10400 10395 10395 10397 10401 10400 10399 10407 10418 10428 10439 10452 10464 10478 10493 10508 10522 10532 10547 10555 10562 10561 10564 10570 10576 10581 10585 10588 10588 10593
10443 10437 10432 10426 10422 10416 10410 10402 10396 10392 10386 10380 10377 10372 10361 10366 10362 10358 10362 10364 10375 10386 10395 10405 10416 10433 10449 10462 10477 10494 10512 10526 10538 10539 10541 10545 10552 10556 10562 10564 10567 10567 10568
10413 10407 10400 10394 10388 10384 10378 10373 10367 10359 10357 10351 10350 10343 10342 10336 10332 10333 10332 10335 10341 10351 10361 10370 10388 10405 10418 10438 10458 10475 10491 10505 10517 10521 10521 10527 10532 10538 10547 10550 10542 10545 10548
10384 10377 10371 10365 10360 10356 10350 10346 10343 10339 10335 10332 10326 10322 10320 10315 10312 10311 10310 10312 10317 10324 10332 10343 10359 10379 10398 10418 10434 10451 10466 10480 10492 10499 10506 10511 10514 10518 10524 10526 10528 10529 10529
10358 10352 10346 10342 10338 10334 10330 10326 10323 10322 10318 10316 10310 10307 10303 10299 10295 10296 10295 10296 10301 10306 10313 10324 10338 10356 10375 10396 10415 10430 10441 10456 10471 10481 10480 10495 10500 10497 10501 10504 10507 10510 10511
10337 10332 10327 10322 10320 10317 10313 10309 10308 10306 10304 10303 10299 10296 10293 10288 10284 10284 10284 10285 10287 10292 10300 10311 10323 10338 10356 10371 10387 10403 10419 10433 10449 10461 10469 10478 10482 10477 10481 10485 10484 10491 10494
10318 10314 10310 10306 10303 10301 10299 10294 10294 10293 10292 10291 10290 10288 10285 10281 10279 10277 10277 10278 10281 10285 10293 10302 10313 10329 10343 10362 10376 10389 10402 10418 10432 10445 10453 10456 10462 10457 10458 10465 10468 10469 10475
10302 10298 10295 10293 10289 10287 10285 10283 10281 10282 10282 10281 10281 10281 10279 10277 10276 10274 10273 10275 10278 10282 10289 10299 10309 10323 10334 10348 10364 10377 10387 10401 10412 10424 10433 10440 10440 10440 10444 10443 10446 10451 10454
10287 10285 10282 10279 10276 10274 10273 10272 10271 10271 10272 10274 10274 10276 10275 10274 10274 10273 10272 10274 10277 10282 10287 10295 10305 10315 10325 10340 10352 10364 10376 10388 10398 10408 10415 10421 10420 10420 10424 10424 10429 10432 10436
10274 10271 10268 10266 10263 10262 10261 10260 10261 10262 10263 10265 10267 10268 10269 10270 10271 10272 10273 10274 10277 10281 10286 10293 10300 10310 10318 10328 10339 10350 10361 10374 10383 10391 10395 10399 10400 10400 10406 10408 10408 10414 10418
10260 10257 10255 10253 10252 10250 10249 10249 10250 10251 10253 10256 10259 10261 10263 10264 10267 10270 10271 10274 10276 10280 10283 10290 10297 10304 10311 10320 10330 10340 10350 10360 10368 10373 10377 10381 10383 10382 10385 10390 10395 10397 10400
10245 10243 10241 10241 10240 10238 10237 10237 10239 10241 10243 10245 10248 10252 10256 10258 10260 10263 10267 10271 10276 10280 10282 10286 10292 10299 10305 10313 10320 10328 10335 10341 10347 10351 10354 10356 10362 10365 10370 10372 10377 10380 10381
10233 10232 10231 10227 10225 10224 10224 10225 10226 10229 10231 10234 10237 10241 10246 10250 10254 10256 10259 10264 10269 10273 10278 10282 10286 10290 10295 10300 10306 10310 10315 10320 10325 10330 10333 10337 10342 10348 10351 10355 10359 10362 10361
10223 10219 10217 10213 10210 10210 10212 10214 10215 10216 10219 10222 10225 10229 10234 10238 10243 10248 10251 10255 10258 10261 10266 10270 10275 10279 10283 10288 10292 10296 10300 10305 10309 10313 10316 10319 10325 10330 10332 10336 10337 10339 10340
10212 10209 10204 10202 10201 10200 10201 10201 10203 10205 10206 10209 10213 10217 10222 10226 10231 10235 10239 10243 10247 10252 10256 10260 10264 10268 10272 10275 10279 10282 10286 10290 10294 10297 10299 10304 10308 10310 10315 10318 10319 10320 10320
10202 10199 10196 10194 10192 10191 10190 10190 10190 10192 10195 10197 10200 10204 10209 10214 10219 10222 10227 10230 10234 10239 10243 10248 10251 10255 10258 10261 10265 10269 10273 10277 10279 10281 10285 10291 10293 10295 10297 10298 10299 10298 10298
10194 10191 10188 10186 10184 10182 10182 10181 10181 10182 10184 10187 10190 10192 10196 10199 10203 10208 10213 10216 10219 10224 10228 10232 10236 10239 10242 10246 10249 10253 10256 10259 10262 10264 10266 10269 10271 10272 10274 10277 10276 10276 10278
10187 10185 10182 10179 10177 10176 10175 10174 10174 10175 10175 10177 10179 10183 10185 10188 10192 10195 10198 10200 10203 10207 10211 10214 10218 10221 10225 10228 10230 10234 10236 10237 10239 10241 10241 10244 10247 10249 10252 10253 10255 10258 10262